Weather History for Joplin, MO

Change the Weather History Date:

Monday, May 27, 2013

  Actual Average Record
Temperature  
Mean Temperature 76 °F 70 °F  
Max Temperature 84 °F 80 °F 92 °F (2012)
Min Temperature 68 °F 59 °F 44 °F (1961)
Degree Days  
Heating Degree Days 0 1  
Month to date heating degree days 142 62  
Since 1 July heating degree days 4246 4065  
Cooling Degree Days 11 6  
Month to date cooling degree days 80 101  
Year to date cooling degree days 110 155  
Growing Degree Days 25 (Base 50)    
Moisture  
Dew Point 64 °F    
Average Humidity 71    
Maximum Humidity 87    
Minimum Humidity 55    
Precipitation  
Precipitation 0.00 in 0.18 in 1.83 in (1987)
Month to date precipitation 4.77 4.98  
Year to date precipitation 19.27 17.22  
Snow  
Snow 0.00 in - - ()
Month to date snowfall 0.0  
Snow Depth 0.00 in    
Sea Level Pressure  
Sea Level Pressure 29.83 in    
Wind  
Wind Speed 18 mph (South)    
Max Wind Speed 30 mph    
Max Gust Speed 40 mph    
Visibility 10 miles    
Events      
T = Trace of Precipitation, MM = Missing Value Source: NWS Daily Summary

Daily Weather History Graph

Daily Weather History Graph

Search for Another Location

Airport:

Trip Planner

Search our weather history database for the weather conditions in past years. The results will help you decide how hot, cold, wet, or windy it might be!

Date:

Astronomy

May. 27, 2013 Rise Set
Actual Time 6:01 AM CDT 8:29 PM CDT
Civil Twilight 5:31 AM CDT 8:59 PM CDT
Nautical Twilight 4:54 AM CDT 9:36 PM CDT
Astronomical Twilight 4:13 AM CDT 10:17 PM CDT
Moon 11:10 PM CDT (5/27) 8:38 AM CDT (5/27)
Length of Visible Light 15h 27m
Length of Day
14h 27m
Waning Gibbous, 91% of the Moon is Illuminated
May 27
Waning Gibbous
May 31
Last Quarter
Jun 8
New
Jun 16
First Quarter
Jun 23
Full

Hourly Weather History & Observations

Time (CDT) Temp. Heat Index Dew Point Humidity Pressure Visibility Wind Dir Wind Speed Gust Speed Precip Events Conditions
12:53 AM 72.0 °F - 59.0 °F 64% 29.94 in 10.0 mi South 15.0 mph 23.0 mph N/A   Clear
1:53 AM 71.1 °F - 59.0 °F 66% 29.94 in 10.0 mi South 12.7 mph - N/A   Overcast
2:53 AM 69.1 °F - 60.1 °F 73% 29.92 in 10.0 mi SSE 10.4 mph - N/A   Clear
3:53 AM 69.1 °F - 62.1 °F 78% 29.92 in 10.0 mi SSE 11.5 mph - N/A   Clear
4:53 AM 69.1 °F - 63.0 °F 81% 29.90 in 10.0 mi South 11.5 mph - N/A   Clear
5:53 AM 68.0 °F - 64.0 °F 87% 29.90 in 10.0 mi SSE 12.7 mph 19.6 mph N/A   Clear
6:53 AM 69.1 °F - 64.9 °F 87% 29.89 in 10.0 mi South 12.7 mph - N/A   Clear
7:53 AM 72.0 °F - 66.0 °F 81% 29.88 in 10.0 mi South 15.0 mph 25.3 mph N/A   Clear
9:53 AM 75.2 °F - 66.2 °F 73% 29.86 in 10.0 mi South 19.6 mph 31.1 mph N/A   Scattered Clouds
10:53 AM 78.1 °F - 66.9 °F 68% 29.83 in 10.0 mi South 23.0 mph 29.9 mph N/A   Clear
11:53 AM 81.0 °F 83.3 °F 66.9 °F 62% 29.83 in 10.0 mi South 27.6 mph 35.7 mph N/A   Clear
12:53 PM 79.0 °F - 66.0 °F 64% 29.82 in 10.0 mi South 24.2 mph 29.9 mph N/A   Clear
1:53 PM 82.0 °F 84.1 °F 66.0 °F 58% 29.81 in 10.0 mi South 19.6 mph 31.1 mph N/A   Clear
2:53 PM 82.9 °F 85.8 °F 68.0 °F 60% 29.82 in 10.0 mi South 13.8 mph 21.9 mph N/A   Partly Cloudy
3:53 PM 81.0 °F 83.0 °F 66.0 °F 60% 29.81 in 10.0 mi South 17.3 mph 23.0 mph N/A   Clear
4:53 PM 82.0 °F 83.8 °F 64.9 °F 56% 29.78 in 10.0 mi South 20.7 mph 29.9 mph N/A   Clear
5:53 PM 81.0 °F 82.7 °F 64.9 °F 58% 29.76 in 10.0 mi South 25.3 mph 32.2 mph N/A   Clear
6:53 PM 80.1 °F 81.9 °F 64.9 °F 60% 29.75 in 10.0 mi South 17.3 mph 28.8 mph N/A   Clear
7:53 PM 78.1 °F - 64.9 °F 64% 29.74 in 10.0 mi South 23.0 mph 28.8 mph N/A   Clear
8:53 PM 75.9 °F - 64.0 °F 67% 29.72 in 10.0 mi South 21.9 mph 27.6 mph N/A   Clear
9:53 PM 75.0 °F - 64.0 °F 69% 29.76 in 10.0 mi South 21.9 mph 29.9 mph N/A   Clear
10:53 PM 75.0 °F - 64.0 °F 69% 29.77 in 10.0 mi South 17.3 mph 25.3 mph N/A   Clear
11:53 PM 73.9 °F - 64.0 °F 71% 29.74 in 10.0 mi South 17.3 mph 28.8 mph N/A   Clear